User: anonymous
Location: Natural Bridges National Monument
(37.6093°N, 109.9767°W)
Time: 22:00:27
(UTC-06:00)
Language:

USA 32 - Orbit

View from above orbital plane
View from above orbital plane
View from above satellite
View from above satellite

Ground track
Ground track

The orbit data is extracted from the following two-line orbital elements,

1 19460U 88078A   14245.07100033 0.00000100  00000-0  36454-4 0    01
2 19460  84.9876  93.5198 0002668 152.2262 207.7737 14.33195079    06
Epoch (UTC): 02 September 2014 01:42:14
Eccentricity: 0.0002668
inclination: 84.9876°
perigee height: 779 km
apogee height: 783 km
right ascension of ascending node: 93.5198°
argument of perigee: 152.2262°
revolutions per day: 14.33195079
mean anomaly at epoch: 207.7737°
orbit number at epoch: 0

The dashed part of the orbit path shows where the satellite is in the earth's shadow,  

DLR